User: anonymous   Login
Location: Unspecified
(0.0000°N, 0.0000°E)
Time: 05:45:23
(UTC+02:00)
Language:

Cosmos 2237 Rocket - Orbit

View from above orbital plane
View from above orbital plane
View from above satellite
View from above satellite

Ground track
Ground track

The orbit data is extracted from the following two-line orbital elements,

1 22566U 93016B   17176.05391992 +.00000166 +00000-0 +11029-3 0  9999
2 22566 071.0076 050.4139 0008790 129.0688 231.1218 14.14945582252374
Epoch (UTC): 25 June 2017 01:17:38
Eccentricity: 0.0008790
inclination: 71.0076°
perigee height: 836 km
apogee height: 849 km
right ascension of ascending node: 50.4139°
argument of perigee: 129.0688°
revolutions per day: 14.14945582
mean anomaly at epoch: 231.1218°
orbit number at epoch: 25237

The dashed part of the orbit path shows where the satellite is in the earth's shadow,  

DLR